Location: Prague
(50.0830°N, 14.4670°E)
Time: 06:20:36
(UTC+01:00)

AO-92 - Visible Passes

Search period start: 23 March 2023 00:00
Search period end: 02 April 2023 01:00
Orbit: 442 x 451 km, 97.3° (Epoch: 22 March)

Date Brightness Start Highest point End Pass type
(mag) Time Alt. Az. Time Alt. Az. Time Alt. Az.
23 Mar ? 21:55:30 10° N 21:55:30 10° N 21:55:33 10° N visible
24 Mar ? 21:19:03 10° NNE 21:19:03 10° NNE 21:19:04 10° NNE visible
25 Mar ? 22:16:06 11° NNW 22:16:06 11° NNW 22:16:11 10° NNW visible
26 Mar ? 22:39:31 12° N 22:39:31 12° N 22:39:52 10° N visible
27 Mar ? 22:02:51 10° NNE 22:02:51 10° NNE 22:02:51 10° NNE visible
28 Mar ? 22:59:40 14° N 22:59:40 14° N 23:00:11 10° N visible
29 Mar ? 22:22:51 13° NNE 22:22:51 13° NNE 22:23:24 10° NNE visible
30 Mar ? 23:19:30 14° NNW 23:19:30 14° NNW 23:20:03 10° NNW visible
31 Mar ? 22:42:33 16° N 22:42:33 16° N 22:43:23 10° N visible
01 Apr ? 22:05:31 12° NNE 22:05:31 12° NNE 22:06:04 10° NNE visible
01 Apr ? 23:39:02 13° NNW 23:39:02 13° NNW 23:39:28 10° NNW visible
